CST,Max TemperatureF,Mean TemperatureF,Min TemperatureF,Max Dew PointF,MeanDew PointF,Min DewpointF,Max Humidity, Mean Humidity, Min Humidity, Max Sea Level PressureIn, Mean Sea Level PressureIn, Min Sea Level PressureIn, Max VisibilityMiles, Mean VisibilityMiles, Min VisibilityMiles, Max Wind SpeedMPH, Mean Wind SpeedMPH, Max Gust SpeedMPH,PrecipitationIn, CloudCover, Events, WindDirDegrees
2013-1-1,28,20,11,22,16,4,82,73,64,30.16,30.12,30.06,10,10,10,12,6,9,0.00,7,Snow,311
2013-1-2,21,15,9,12,6,3,78,68,54,30.21,30.16,30.13,10,10,10,13,6,,0.00,5,,217
2013-1-3,29,21,13,25,18,6,88,78,67,30.24,30.17,30.11,10,8,2,15,9,22,0.00,8,Snow,250
2013-1-4,29,20,12,21,16,8,86,79,68,30.25,30.21,30.15,10,10,7,22,11,25,0.00,5,,238
2013-1-5,32,24,17,32,23,15,98,86,71,30.26,30.15,29.99,10,8,2,17,8,24,0.00,6,Snow,210
2013-1-6,33,28,20,31,25,18,92,83,75,30.32,30.09,29.92,10,9,4,17,11,32,0.00,7,,269
2013-1-7,32,23,14,24,20,13,96,83,64,30.36,30.26,30.14,10,8,2,16,7,23,0.00,3,,205
2013-1-8,36,30,23,27,24,21,89,80,69,30.21,30.16,30.08,10,8,5,10,6,16,0.00,2,,186
2013-1-9,46,35,23,32,26,16,90,66,33,30.51,30.27,30.06,10,10,10,16,9,30,0.00,1,Rain,258
2013-1-10,39,30,22,38,27,20,98,82,62,30.52,30.31,29.98,10,9,2,15,5,21,0.20,4,Rain,120
2013-1-11,51,45,39,51,46,39,100,95,86,29.95,29.81,29.72,10,8,2,20,10,25,0.44,5,Rain,188
2013-1-12,54,44,35,47,41,32,95,82,57,29.96,29.88,29.80,10,9,4,18,10,24,0.12,2,Rain-Snow,252
2013-1-13,34,25,15,35,27,10,100,93,79,30.22,29.98,29.84,10,6,2,16,10,23,0.01,8,Rain-Snow,314
2013-1-14,23,18,13,16,12,8,90,80,70,30.44,30.38,30.22,10,9,4,13,7,17,0.00,8,Snow,296
2013-1-15,29,20,11,20,15,8,93,82,61,30.41,30.31,30.11,10,9,7,5,1,,0.00,3,,109
2013-1-16,34,24,15,26,20,13,93,76,52,30.10,29.99,29.87,10,9,7,22,7,28,0.00,5,Snow,244
2013-1-17,32,24,17,29,18,10,88,67,51,30.38,30.24,30.04,10,10,10,21,9,28,0.00,4,,309
2013-1-18,37,26,16,26,19,10,87,69,56,30.42,30.23,29.98,10,10,10,23,9,32,0.00,2,,213
2013-1-19,47,40,33,33,29,17,77,66,48,29.98,29.85,29.75,10,10,10,33,17,46,0.00,2,,234
2013-1-20,32,24,16,13,6,1,73,57,40,30.26,30.17,29.86,10,10,4,30,14,45,0.00,7,Snow,298
2013-1-21,16,11,6,7,0,-6,83,62,50,30.22,30.14,30.10,10,8,2,21,13,31,0.00,8,Snow,279
2013-1-22,10,5,0,-1,-4,-7,81,64,48,30.35,30.29,30.21,10,7,2,16,11,23,0.00,5,Snow,260
2013-1-23,19,12,6,14,4,-4,85,65,53,30.31,30.19,30.08,10,9,1,22,9,31,0.00,8,Snow,257
2013-1-24,17,12,7,12,6,0,91,71,50,30.61,30.47,30.23,10,8,1,17,7,29,0.08,4,Snow,88
2013-1-25,25,20,16,19,14,8,89,77,62,30.38,30.11,29.98,10,8,2,14,6,21,0.01,8,Snow,203
2013-1-26,24,18,11,18,15,9,92,76,63,30.41,30.31,30.12,10,9,1,14,7,22,0.00,7,Snow,310
2013-1-27,33,26,19,33,21,14,97,80,69,30.39,30.24,29.99,10,8,2,17,6,24,0.02,6,Snow,150
2013-1-28,47,40,33,48,41,33,100,100,98,29.98,29.93,29.87,2,1,0,16,8,23,0.01,8,Fog-Rain,192
2013-1-29,57,48,40,57,53,40,100,99,91,29.88,29.65,29.41,10,3,0,18,11,29,1.06,8,Fog-Rain-Thunderstorm,200
2013-1-30,51,37,23,52,37,18,100,95,77,29.56,29.34,29.18,10,4,0,23,8,34,0.27,8,Fog-Rain-Snow,270
2013-1-31,22,15,8,19,9,4,89,76,64,30.08,29.83,29.58,10,4,0,21,17,31,0.00,8,Snow,272